Terminal Aerodrome Forecast
Issued by NWS Grand Junction, CO

Home | Current Version | Previous Version | Text Only | Print | Product List | Glossary On
Versions: 1 2 3 4 5 6 7 8 9 10 11 12 13 14 15 16 17 18 19 20 21 22 23 24 25 26 27 28 29 30 31 32 33 34 35 36 37 38 39 40 41 42 43 44 45 46
000
FTUS45 KGJT 031721
TAFGJT
TAF
KGJT 031721Z 0318/0418 16004KT P6SM FEW200
     FM032000 24012G22KT P6SM FEW200
     FM040100 24010KT P6SM FEW200
     FM040800 11012KT P6SM SKC=

USA.gov is the U.S. government's official web portal to all federal, state and local government web resources and services.